Year,Month,Day,Hour,Minute,Value (Times are PST for temperature in C)
2006,07,23,00,00,24.60
2006,07,23,00,01,24.60
2006,07,23,00,02,24.60
2006,07,23,00,03,24.50
2006,07,23,00,04,24.50
2006,07,23,00,05,24.50
2006,07,23,00,06,24.50
2006,07,23,00,07,24.50
2006,07,23,00,08,24.40
2006,07,23,00,09,24.40
2006,07,23,00,10,24.40
2006,07,23,00,11,24.40
2006,07,23,00,12,24.40
2006,07,23,00,13,24.30
2006,07,23,00,14,24.30
2006,07,23,00,15,24.30
2006,07,23,00,16,24.30
2006,07,23,00,17,24.30
2006,07,23,00,18,24.30
2006,07,23,00,19,24.30
2006,07,23,00,20,24.30
2006,07,23,00,21,24.20
2006,07,23,00,22,24.20
2006,07,23,00,23,24.20
2006,07,23,00,24,24.20
2006,07,23,00,25,24.20
2006,07,23,00,26,24.10
2006,07,23,00,27,24.10
2006,07,23,00,28,24.10
2006,07,23,00,29,24.10
2006,07,23,00,30,24.10
2006,07,23,00,31,24.10
2006,07,23,00,32,24.10
2006,07,23,00,33,24.10
2006,07,23,00,34,24.10
2006,07,23,00,35,24.10
2006,07,23,00,36,24.10
2006,07,23,00,37,24.10
2006,07,23,00,38,24.10
2006,07,23,00,39,24.10
2006,07,23,00,40,24.00
2006,07,23,00,41,23.90
2006,07,23,00,42,23.90
2006,07,23,00,43,23.90
2006,07,23,00,44,23.90
2006,07,23,00,45,23.80
2006,07,23,00,46,23.80
2006,07,23,00,47,23.80
2006,07,23,00,48,23.80
2006,07,23,00,49,23.70
2006,07,23,00,50,23.70
2006,07,23,00,51,23.70
2006,07,23,00,52,23.70
2006,07,23,00,53,23.70
2006,07,23,00,54,23.70
2006,07,23,00,55,23.60
2006,07,23,00,56,23.60
2006,07,23,00,57,23.50
2006,07,23,00,58,23.40
2006,07,23,00,59,23.40
2006,07,23,01,00,23.40
2006,07,23,01,01,23.30
2006,07,23,01,02,23.30
2006,07,23,01,03,23.30
2006,07,23,01,04,23.30
2006,07,23,01,05,23.30
2006,07,23,01,06,23.30
2006,07,23,01,07,23.20
2006,07,23,01,08,23.20
2006,07,23,01,09,23.20
2006,07,23,01,10,23.20
2006,07,23,01,11,23.20
2006,07,23,01,12,23.20
2006,07,23,01,13,23.20
2006,07,23,01,14,23.20
2006,07,23,01,15,23.20
2006,07,23,01,16,23.20
2006,07,23,01,17,23.20
2006,07,23,01,18,23.20
2006,07,23,01,19,23.20
2006,07,23,01,20,23.10
2006,07,23,01,21,23.10
2006,07,23,01,22,23.10
2006,07,23,01,23,23.10
2006,07,23,01,24,23.10
2006,07,23,01,25,23.10
2006,07,23,01,26,23.10
2006,07,23,01,27,23.10
2006,07,23,01,28,23.00
2006,07,23,01,29,22.90
2006,07,23,01,30,22.90
2006,07,23,01,31,22.90
2006,07,23,01,32,22.90
2006,07,23,01,33,22.90
2006,07,23,01,34,22.90
2006,07,23,01,35,22.90
2006,07,23,01,36,22.90
2006,07,23,01,37,22.90
2006,07,23,01,38,22.90
2006,07,23,01,39,22.80
2006,07,23,01,40,22.80
2006,07,23,01,41,22.80
2006,07,23,01,42,22.80
2006,07,23,01,43,22.80
2006,07,23,01,44,22.80
2006,07,23,01,45,22.70
2006,07,23,01,46,22.70
2006,07,23,01,47,22.70
2006,07,23,01,48,22.70
2006,07,23,01,49,22.70
2006,07,23,01,50,22.70
2006,07,23,01,51,22.60
2006,07,23,01,52,22.60
2006,07,23,01,53,22.60
2006,07,23,01,54,22.60
2006,07,23,01,55,22.60
2006,07,23,01,56,22.60
2006,07,23,01,57,22.50
2006,07,23,01,58,22.50
2006,07,23,01,59,22.50
2006,07,23,02,00,22.50
2006,07,23,02,01,22.40
2006,07,23,02,02,22.40
2006,07,23,02,03,22.40
2006,07,23,02,04,22.40
2006,07,23,02,05,22.40
2006,07,23,02,06,22.40
2006,07,23,02,07,22.30
2006,07,23,02,08,22.30
2006,07,23,02,09,22.30
2006,07,23,02,10,22.30
2006,07,23,02,11,22.30
2006,07,23,02,12,22.30
2006,07,23,02,13,22.30
2006,07,23,02,14,22.20
2006,07,23,02,15,22.20
2006,07,23,02,16,22.20
2006,07,23,02,17,22.20
2006,07,23,02,18,22.20
2006,07,23,02,19,22.10
2006,07,23,02,20,22.10
2006,07,23,02,21,22.10
2006,07,23,02,22,22.10
2006,07,23,02,23,22.10
2006,07,23,02,24,22.10
2006,07,23,02,25,22.10
2006,07,23,02,26,22.00
2006,07,23,02,27,22.00
2006,07,23,02,28,22.00
2006,07,23,02,29,22.00
2006,07,23,02,30,22.00
2006,07,23,02,31,22.00
2006,07,23,02,32,22.00
2006,07,23,02,33,21.90
2006,07,23,02,34,21.90
2006,07,23,02,35,21.90
2006,07,23,02,36,21.90
2006,07,23,02,37,21.90
2006,07,23,02,38,21.90
2006,07,23,02,39,21.90
2006,07,23,02,40,21.90
2006,07,23,02,41,21.80
2006,07,23,02,42,21.80
2006,07,23,02,43,21.80
2006,07,23,02,44,21.80
2006,07,23,02,45,21.80
2006,07,23,02,46,21.80
2006,07,23,02,47,21.80
2006,07,23,02,48,21.80
2006,07,23,02,49,21.70
2006,07,23,02,50,21.70
2006,07,23,02,51,21.70
2006,07,23,02,52,21.70
2006,07,23,02,53,21.70
2006,07,23,02,54,21.70
2006,07,23,02,55,21.60
2006,07,23,02,56,21.60
2006,07,23,02,57,21.60
2006,07,23,02,58,21.60
2006,07,23,02,59,21.60
2006,07,23,03,00,21.60
2006,07,23,03,01,21.60
2006,07,23,03,02,21.40
2006,07,23,03,03,21.40
2006,07,23,03,04,21.40
2006,07,23,03,05,21.30
2006,07,23,03,06,21.30
2006,07,23,03,07,21.30
2006,07,23,03,08,21.30
2006,07,23,03,09,21.30
2006,07,23,03,10,21.20
2006,07,23,03,11,21.20
2006,07,23,03,12,21.20
2006,07,23,03,13,21.10
2006,07,23,03,14,21.10
2006,07,23,03,15,21.00
2006,07,23,03,16,21.00
2006,07,23,03,17,21.00
2006,07,23,03,18,21.00
2006,07,23,03,19,21.00
2006,07,23,03,20,20.90
2006,07,23,03,21,20.90
2006,07,23,03,22,20.90
2006,07,23,03,23,20.90
2006,07,23,03,24,20.90
2006,07,23,03,25,20.90
2006,07,23,03,26,20.90
2006,07,23,03,27,20.80
2006,07,23,03,28,20.80
2006,07,23,03,29,20.80
2006,07,23,03,30,20.80
2006,07,23,03,31,20.80
2006,07,23,03,32,20.80
2006,07,23,03,33,20.80
2006,07,23,03,34,20.70
2006,07,23,03,35,20.70
2006,07,23,03,36,20.70
2006,07,23,03,37,20.70
2006,07,23,03,38,20.70
2006,07,23,03,39,20.60
2006,07,23,03,40,20.60
2006,07,23,03,41,20.60
2006,07,23,03,42,20.60
2006,07,23,03,43,20.50
2006,07,23,03,44,20.50
2006,07,23,03,45,20.50
2006,07,23,03,46,20.50
2006,07,23,03,47,20.40
2006,07,23,03,48,20.40
2006,07,23,03,49,20.40
2006,07,23,03,50,20.40
2006,07,23,03,51,20.30
2006,07,23,03,52,20.30
2006,07,23,03,53,20.30
2006,07,23,03,54,20.30
2006,07,23,03,55,20.30
2006,07,23,03,56,20.20
2006,07,23,03,57,20.20
2006,07,23,03,58,20.20
2006,07,23,03,59,20.20
2006,07,23,04,00,20.20
2006,07,23,04,01,20.20
2006,07,23,04,02,20.20
2006,07,23,04,03,20.20
2006,07,23,04,04,20.20
2006,07,23,04,05,20.20
2006,07,23,04,06,20.20
2006,07,23,04,07,20.20
2006,07,23,04,08,20.20
2006,07,23,04,09,20.10
2006,07,23,04,10,20.10
2006,07,23,04,11,20.10
2006,07,23,04,12,20.10
2006,07,23,04,13,20.00
2006,07,23,04,14,19.90
2006,07,23,04,15,19.90
2006,07,23,04,16,19.90
2006,07,23,04,17,19.90
2006,07,23,04,18,19.90
2006,07,23,04,19,19.90
2006,07,23,04,20,19.90
2006,07,23,04,21,19.90
2006,07,23,04,22,19.90
2006,07,23,04,23,19.90
2006,07,23,04,24,19.90
2006,07,23,04,25,19.80
2006,07,23,04,26,19.80
2006,07,23,04,27,19.80
2006,07,23,04,28,19.70
2006,07,23,04,29,19.70
2006,07,23,04,30,19.70
2006,07,23,04,31,19.70
2006,07,23,04,32,19.60
2006,07,23,04,33,19.60
2006,07,23,04,34,19.60
2006,07,23,04,35,19.60
2006,07,23,04,36,19.60
2006,07,23,04,37,19.60
2006,07,23,04,38,19.60
2006,07,23,04,39,19.60
2006,07,23,04,40,19.60
2006,07,23,04,41,19.60
2006,07,23,04,42,19.60
2006,07,23,04,43,19.60
2006,07,23,04,44,19.60
2006,07,23,04,45,19.60
2006,07,23,04,46,19.60
2006,07,23,04,47,19.60
2006,07,23,04,48,19.70
2006,07,23,04,49,19.70
2006,07,23,04,50,19.70
2006,07,23,04,51,19.70
2006,07,23,04,52,19.80
2006,07,23,04,53,19.80
2006,07,23,04,54,19.80
2006,07,23,04,55,19.80
2006,07,23,04,56,19.80
2006,07,23,04,57,19.80
2006,07,23,04,58,19.80
2006,07,23,04,59,19.80
2006,07,23,05,00,19.80
2006,07,23,05,01,19.80
2006,07,23,05,02,19.80
2006,07,23,05,03,19.80
2006,07,23,05,04,19.70
2006,07,23,05,05,19.70
2006,07,23,05,06,19.70
2006,07,23,05,07,19.70
2006,07,23,05,08,19.70
2006,07,23,05,09,19.60
2006,07,23,05,10,19.60
2006,07,23,05,11,19.60
2006,07,23,05,12,19.60
2006,07,23,05,13,19.60
2006,07,23,05,14,19.50
2006,07,23,05,15,19.50
2006,07,23,05,16,19.50
2006,07,23,05,17,19.50
2006,07,23,05,18,19.50
2006,07,23,05,19,19.50
2006,07,23,05,20,19.50
2006,07,23,05,21,19.50
2006,07,23,05,22,19.40
2006,07,23,05,23,19.40
2006,07,23,05,24,19.40
2006,07,23,05,25,19.40
2006,07,23,05,26,19.40
2006,07,23,05,27,19.40
2006,07,23,05,28,19.40
2006,07,23,05,29,19.40
2006,07,23,05,30,19.40
2006,07,23,05,31,19.40
2006,07,23,05,32,19.40
2006,07,23,05,33,19.30
2006,07,23,05,34,19.30
2006,07,23,05,35,19.30
2006,07,23,05,36,19.30
2006,07,23,05,37,19.30
2006,07,23,05,38,19.30
2006,07,23,05,39,19.20
2006,07,23,05,40,19.20
2006,07,23,05,41,19.20
2006,07,23,05,42,19.10
2006,07,23,05,43,19.10
2006,07,23,05,44,19.10
2006,07,23,05,45,19.10
2006,07,23,05,46,19.10
2006,07,23,05,47,19.10
2006,07,23,05,48,19.10
2006,07,23,05,49,19.00
2006,07,23,05,50,18.90
2006,07,23,05,51,18.90
2006,07,23,05,52,18.90
2006,07,23,05,53,18.90
2006,07,23,05,54,18.90
2006,07,23,05,55,18.90
2006,07,23,05,56,18.90
2006,07,23,05,57,18.90
2006,07,23,05,58,18.90
2006,07,23,05,59,18.90
2006,07,23,06,00,18.90
2006,07,23,06,01,18.80
2006,07,23,06,02,18.80
2006,07,23,06,03,18.80
2006,07,23,06,04,18.80
2006,07,23,06,05,18.80
2006,07,23,06,06,18.80
2006,07,23,06,07,18.80
2006,07,23,06,08,18.80
2006,07,23,06,09,18.80
2006,07,23,06,10,18.80
2006,07,23,06,11,18.80
2006,07,23,06,12,18.90
2006,07,23,06,13,18.90
2006,07,23,06,14,18.90
2006,07,23,06,15,18.90
2006,07,23,06,16,18.90
2006,07,23,06,17,18.90
2006,07,23,06,18,18.90
2006,07,23,06,19,18.90
2006,07,23,06,20,18.90
2006,07,23,06,21,18.90
2006,07,23,06,22,18.90
2006,07,23,06,23,18.90
2006,07,23,06,24,18.90
2006,07,23,06,25,18.90
2006,07,23,06,26,18.90
2006,07,23,06,27,18.90
2006,07,23,06,28,18.90
2006,07,23,06,29,19.00
2006,07,23,06,30,19.10
2006,07,23,06,31,19.10
2006,07,23,06,32,19.10
2006,07,23,06,33,19.10
2006,07,23,06,34,19.10
2006,07,23,06,35,19.10
2006,07,23,06,36,19.10
2006,07,23,06,37,19.10
2006,07,23,06,38,19.10
2006,07,23,06,39,19.10
2006,07,23,06,40,19.20
2006,07,23,06,41,19.20
2006,07,23,06,42,19.20
2006,07,23,06,43,19.20
2006,07,23,06,44,19.30
2006,07,23,06,45,19.30
2006,07,23,06,46,19.30
2006,07,23,06,47,19.30
2006,07,23,06,48,19.30
2006,07,23,06,49,19.30
2006,07,23,06,50,19.40
2006,07,23,06,51,19.40
2006,07,23,06,52,19.40
2006,07,23,06,53,19.40
2006,07,23,06,54,19.50
2006,07,23,06,55,19.50
2006,07,23,06,56,19.50
2006,07,23,06,57,19.60
2006,07,23,06,58,19.60
2006,07,23,06,59,19.60
2006,07,23,07,00,19.70
2006,07,23,07,01,19.80
2006,07,23,07,02,19.80
2006,07,23,07,03,19.90
2006,07,23,07,04,19.90
2006,07,23,07,05,20.10
2006,07,23,07,06,20.10
2006,07,23,07,07,20.20
2006,07,23,07,08,20.20
2006,07,23,07,09,20.30
2006,07,23,07,10,20.40
2006,07,23,07,11,20.40
2006,07,23,07,12,20.50
2006,07,23,07,13,20.60
2006,07,23,07,14,20.60
2006,07,23,07,15,20.70
2006,07,23,07,16,20.80
2006,07,23,07,17,20.90
2006,07,23,07,18,21.00
2006,07,23,07,19,21.00
2006,07,23,07,20,21.10
2006,07,23,07,21,21.10
2006,07,23,07,22,21.20
2006,07,23,07,23,21.30
2006,07,23,07,24,21.30
2006,07,23,07,25,21.30
2006,07,23,07,26,21.40
2006,07,23,07,27,21.40
2006,07,23,07,28,21.40
2006,07,23,07,29,21.40
2006,07,23,07,30,21.50
2006,07,23,07,31,21.60
2006,07,23,07,32,21.60
2006,07,23,07,33,21.60
2006,07,23,07,34,21.60
2006,07,23,07,35,21.60
2006,07,23,07,36,21.60
2006,07,23,07,37,21.60
2006,07,23,07,38,21.60
2006,07,23,07,39,21.60
2006,07,23,07,40,21.70
2006,07,23,07,41,21.70
2006,07,23,07,42,21.70
2006,07,23,07,43,21.80
2006,07,23,07,44,21.80
2006,07,23,07,45,21.80
2006,07,23,07,46,21.90
2006,07,23,07,47,21.90
2006,07,23,07,48,21.90
2006,07,23,07,49,22.00
2006,07,23,07,50,22.00
2006,07,23,07,51,22.00
2006,07,23,07,52,22.00
2006,07,23,07,53,22.10
2006,07,23,07,54,22.10
2006,07,23,07,55,22.20
2006,07,23,07,56,22.20
2006,07,23,07,57,22.20
2006,07,23,07,58,22.30
2006,07,23,07,59,22.30
2006,07,23,08,00,22.30
2006,07,23,08,01,22.30
2006,07,23,08,02,22.30
2006,07,23,08,03,22.30
2006,07,23,08,04,22.40
2006,07,23,08,05,22.40
2006,07,23,08,06,22.40
2006,07,23,08,07,22.40
2006,07,23,08,08,22.40
2006,07,23,08,09,22.40
2006,07,23,08,10,22.40
2006,07,23,08,11,22.40
2006,07,23,08,12,22.40
2006,07,23,08,13,22.40
2006,07,23,08,14,22.40
2006,07,23,08,15,22.40
2006,07,23,08,16,22.40
2006,07,23,08,17,22.40
2006,07,23,08,18,22.40
2006,07,23,08,19,22.40
2006,07,23,08,20,22.40
2006,07,23,08,21,22.50
2006,07,23,08,22,22.50
2006,07,23,08,23,22.50
2006,07,23,08,24,22.40
2006,07,23,08,25,22.40
2006,07,23,08,26,22.40
2006,07,23,08,27,22.40
2006,07,23,08,28,22.40
2006,07,23,08,29,22.40
2006,07,23,08,30,22.30
2006,07,23,08,31,22.30
2006,07,23,08,32,22.20
2006,07,23,08,33,22.20
2006,07,23,08,34,22.20
2006,07,23,08,35,22.20
2006,07,23,08,36,22.30
2006,07,23,08,37,22.30
2006,07,23,08,38,22.30
2006,07,23,08,39,22.30
2006,07,23,08,40,22.30
2006,07,23,08,41,22.30
2006,07,23,08,42,22.30
2006,07,23,08,43,22.30
2006,07,23,08,44,22.40
2006,07,23,08,45,22.40
2006,07,23,08,46,22.40
2006,07,23,08,47,22.40
2006,07,23,08,48,22.40
2006,07,23,08,49,22.50
2006,07,23,08,50,22.50
2006,07,23,08,51,22.50
2006,07,23,08,52,22.60
2006,07,23,08,53,22.60
2006,07,23,08,54,22.60
2006,07,23,08,55,22.70
2006,07,23,08,56,22.70
2006,07,23,08,57,22.80
2006,07,23,08,58,22.80
2006,07,23,08,59,22.80
2006,07,23,09,00,22.80
2006,07,23,09,01,22.80
2006,07,23,09,02,22.80
2006,07,23,09,03,22.80
2006,07,23,09,04,22.80
2006,07,23,09,05,22.90
2006,07,23,09,06,22.90
2006,07,23,09,07,22.90
2006,07,23,09,08,22.90
2006,07,23,09,09,22.90
2006,07,23,09,10,23.00
2006,07,23,09,11,23.10
2006,07,23,09,12,23.10
2006,07,23,09,13,23.20
2006,07,23,09,14,23.20
2006,07,23,09,15,23.30
2006,07,23,09,16,23.30
2006,07,23,09,17,23.30
2006,07,23,09,18,23.30
2006,07,23,09,19,23.40
2006,07,23,09,20,23.40
2006,07,23,09,21,23.40
2006,07,23,09,22,23.40
2006,07,23,09,23,23.40
2006,07,23,09,24,23.40
2006,07,23,09,25,23.40
2006,07,23,09,26,23.40
2006,07,23,09,27,23.40
2006,07,23,09,28,23.40
2006,07,23,09,29,23.40
2006,07,23,09,30,23.40
2006,07,23,09,31,23.50
2006,07,23,09,32,23.50
2006,07,23,09,33,23.50
2006,07,23,09,34,23.40
2006,07,23,09,35,23.40
2006,07,23,09,36,23.40
2006,07,23,09,37,23.40
2006,07,23,09,38,23.30
2006,07,23,09,39,23.30
2006,07,23,09,40,23.30
2006,07,23,09,41,23.30
2006,07,23,09,42,23.30
2006,07,23,09,43,23.30
2006,07,23,09,44,23.30
2006,07,23,09,45,23.30
2006,07,23,09,46,23.30
2006,07,23,09,47,23.30
2006,07,23,09,48,23.30
2006,07,23,09,49,23.30
2006,07,23,09,50,23.30
2006,07,23,09,51,23.30
2006,07,23,09,52,23.20
2006,07,23,09,53,23.20
2006,07,23,09,54,23.20
2006,07,23,09,55,23.20
2006,07,23,09,56,23.20
2006,07,23,09,57,23.20
2006,07,23,09,58,23.20
2006,07,23,09,59,23.20
2006,07,23,10,00,23.20
2006,07,23,10,01,23.30
2006,07,23,10,02,23.30
2006,07,23,10,03,23.40
2006,07,23,10,04,23.50
2006,07,23,10,05,23.60
2006,07,23,10,06,23.60
2006,07,23,10,07,23.70
2006,07,23,10,08,23.70
2006,07,23,10,09,23.70
2006,07,23,10,10,23.70
2006,07,23,10,11,23.70
2006,07,23,10,12,23.70
2006,07,23,10,13,23.70
2006,07,23,10,14,23.80
2006,07,23,10,15,23.90
2006,07,23,10,16,24.00
2006,07,23,10,17,24.10
2006,07,23,10,18,24.10
2006,07,23,10,19,24.20
2006,07,23,10,20,24.30
2006,07,23,10,21,24.30
2006,07,23,10,22,24.30
2006,07,23,10,23,24.30
2006,07,23,10,24,24.40
2006,07,23,10,25,24.40
2006,07,23,10,26,24.40
2006,07,23,10,27,24.40
2006,07,23,10,28,24.30
2006,07,23,10,29,24.30
2006,07,23,10,30,24.30
2006,07,23,10,31,24.40
2006,07,23,10,32,24.50
2006,07,23,10,33,24.50
2006,07,23,10,34,24.50
2006,07,23,10,35,24.50
2006,07,23,10,36,24.40
2006,07,23,10,37,24.30
2006,07,23,10,38,24.30
2006,07,23,10,39,24.30
2006,07,23,10,40,24.30
2006,07,23,10,41,24.30
2006,07,23,10,42,24.30
2006,07,23,10,43,24.30
2006,07,23,10,44,24.30
2006,07,23,10,45,24.30
2006,07,23,10,46,24.30
2006,07,23,10,47,24.30
2006,07,23,10,48,24.30
2006,07,23,10,49,24.40
2006,07,23,10,50,24.40
2006,07,23,10,51,24.40
2006,07,23,10,52,24.40
2006,07,23,10,53,24.40
2006,07,23,10,54,24.40
2006,07,23,10,55,24.40
2006,07,23,10,56,24.40
2006,07,23,10,57,24.30
2006,07,23,10,58,24.40
2006,07,23,10,59,24.40
2006,07,23,11,00,24.40
2006,07,23,11,01,24.40
2006,07,23,11,02,24.40
2006,07,23,11,03,24.30
2006,07,23,11,04,24.20
2006,07,23,11,05,24.10
2006,07,23,11,06,24.10
2006,07,23,11,07,24.10
2006,07,23,11,08,24.20
2006,07,23,11,09,24.20
2006,07,23,11,10,24.20
2006,07,23,11,11,24.20
2006,07,23,11,12,24.10
2006,07,23,11,13,24.10
2006,07,23,11,14,24.10
2006,07,23,11,15,24.20
2006,07,23,11,16,24.20
2006,07,23,11,17,24.20
2006,07,23,11,18,24.10
2006,07,23,11,19,24.00
2006,07,23,11,20,23.90
2006,07,23,11,21,23.90
2006,07,23,11,22,23.80
2006,07,23,11,23,23.80
2006,07,23,11,24,23.80
2006,07,23,11,25,23.80
2006,07,23,11,26,23.70
2006,07,23,11,27,23.70
2006,07,23,11,28,23.70
2006,07,23,11,29,23.70
2006,07,23,11,30,23.70
2006,07,23,11,31,23.70
2006,07,23,11,32,23.70
2006,07,23,11,33,23.70
2006,07,23,11,34,23.80
2006,07,23,11,35,23.90
2006,07,23,11,36,23.90
2006,07,23,11,37,24.00
2006,07,23,11,38,24.10
2006,07,23,11,39,24.10
2006,07,23,11,40,24.10
2006,07,23,11,41,24.10
2006,07,23,11,42,24.10
2006,07,23,11,43,24.10
2006,07,23,11,44,24.10
2006,07,23,11,45,24.10
2006,07,23,11,46,24.10
2006,07,23,11,47,24.20
2006,07,23,11,48,24.30
2006,07,23,11,49,24.50
2006,07,23,11,50,24.60
2006,07,23,11,51,24.70
2006,07,23,11,52,24.70
2006,07,23,11,53,24.80
2006,07,23,11,54,24.80
2006,07,23,11,55,24.90
2006,07,23,11,56,24.90
2006,07,23,11,57,24.90
2006,07,23,11,58,25.00
2006,07,23,11,59,25.00
2006,07,23,12,00,25.00
2006,07,23,12,01,25.00
2006,07,23,12,02,25.00
2006,07,23,12,03,24.90
2006,07,23,12,04,25.00
2006,07,23,12,05,25.00
2006,07,23,12,06,25.00
2006,07,23,12,07,25.10
2006,07,23,12,08,25.20
2006,07,23,12,09,25.30
2006,07,23,12,10,25.40
2006,07,23,12,11,25.40
2006,07,23,12,12,25.40
2006,07,23,12,13,25.40
2006,07,23,12,14,25.30
2006,07,23,12,15,25.20
2006,07,23,12,16,25.10
2006,07,23,12,17,25.00
2006,07,23,12,18,25.00
2006,07,23,12,19,25.00
2006,07,23,12,20,25.00
2006,07,23,12,21,25.10
2006,07,23,12,22,25.20
2006,07,23,12,23,25.20
2006,07,23,12,24,25.20
2006,07,23,12,25,25.20
2006,07,23,12,26,25.30
2006,07,23,12,27,25.30
2006,07,23,12,28,25.40
2006,07,23,12,29,25.40
2006,07,23,12,30,25.40
2006,07,23,12,31,25.40
2006,07,23,12,32,25.40
2006,07,23,12,33,25.40
2006,07,23,12,34,25.40
2006,07,23,12,35,25.50
2006,07,23,12,36,25.60
2006,07,23,12,37,25.70
2006,07,23,12,38,25.70
2006,07,23,12,39,25.70
2006,07,23,12,40,25.70
2006,07,23,12,41,25.70
2006,07,23,12,42,25.60
2006,07,23,12,43,25.60
2006,07,23,12,44,25.60
2006,07,23,12,45,25.60
2006,07,23,12,46,25.60
2006,07,23,12,47,25.70
2006,07,23,12,48,25.70
2006,07,23,12,49,25.70
2006,07,23,12,50,25.80
2006,07,23,12,51,25.80
2006,07,23,12,52,25.90
2006,07,23,12,53,26.00
2006,07,23,12,54,26.10
2006,07,23,12,55,26.10
2006,07,23,12,56,26.20
2006,07,23,12,57,26.30
2006,07,23,12,58,26.40
2006,07,23,12,59,26.60
2006,07,23,13,00,26.60
2006,07,23,13,01,26.70
2006,07,23,13,02,26.80
2006,07,23,13,03,26.80
2006,07,23,13,04,26.90
2006,07,23,13,05,27.10
2006,07,23,13,06,27.10
2006,07,23,13,07,27.00
2006,07,23,13,08,26.90
2006,07,23,13,09,26.90
2006,07,23,13,10,26.90
2006,07,23,13,11,26.90
2006,07,23,13,12,26.90
2006,07,23,13,13,26.90
2006,07,23,13,14,26.90
2006,07,23,13,15,26.80
2006,07,23,13,16,26.70
2006,07,23,13,17,26.70
2006,07,23,13,18,26.70
2006,07,23,13,19,26.70
2006,07,23,13,20,26.70
2006,07,23,13,21,26.80
2006,07,23,13,22,26.90
2006,07,23,13,23,27.00
2006,07,23,13,24,27.10
2006,07,23,13,25,27.10
2006,07,23,13,26,27.10
2006,07,23,13,27,27.10
2006,07,23,13,28,27.10
2006,07,23,13,29,27.20
2006,07,23,13,30,27.30
2006,07,23,13,31,27.30
2006,07,23,13,32,27.40
2006,07,23,13,33,27.40
2006,07,23,13,34,27.40
2006,07,23,13,35,27.40
2006,07,23,13,36,27.30
2006,07,23,13,37,27.30
2006,07,23,13,38,27.30
2006,07,23,13,39,27.30
2006,07,23,13,40,27.30
2006,07,23,13,41,27.10
2006,07,23,13,42,27.10
2006,07,23,13,43,27.00
2006,07,23,13,44,26.90
2006,07,23,13,45,26.90
2006,07,23,13,46,26.90
2006,07,23,13,47,26.80
2006,07,23,13,48,26.90
2006,07,23,13,49,27.00
2006,07,23,13,50,27.10
2006,07,23,13,51,27.20
2006,07,23,13,52,27.20
2006,07,23,13,53,27.30
2006,07,23,13,54,27.40
2006,07,23,13,55,27.50
2006,07,23,13,56,27.60
2006,07,23,13,57,27.70
2006,07,23,13,58,27.80
2006,07,23,13,59,28.00
2006,07,23,14,00,28.00
2006,07,23,14,01,28.10
2006,07,23,14,02,28.20
2006,07,23,14,03,28.30
2006,07,23,14,04,28.30
2006,07,23,14,05,28.30
2006,07,23,14,06,28.10
2006,07,23,14,07,28.00
2006,07,23,14,08,28.00
2006,07,23,14,09,28.00
2006,07,23,14,10,27.90
2006,07,23,14,11,27.80
2006,07,23,14,12,27.70
2006,07,23,14,13,27.70
2006,07,23,14,14,27.60
2006,07,23,14,15,27.60
2006,07,23,14,16,27.60
2006,07,23,14,17,27.60
2006,07,23,14,18,27.70
2006,07,23,14,19,27.90
2006,07,23,14,20,28.00
2006,07,23,14,21,28.10
2006,07,23,14,22,28.20
2006,07,23,14,23,28.20
2006,07,23,14,24,28.30
2006,07,23,14,25,28.30
2006,07,23,14,26,28.20
2006,07,23,14,27,28.20
2006,07,23,14,28,28.20
2006,07,23,14,29,28.20
2006,07,23,14,30,28.20
2006,07,23,14,31,28.30
2006,07,23,14,32,28.30
2006,07,23,14,33,28.30
2006,07,23,14,34,28.20
2006,07,23,14,35,28.10
2006,07,23,14,36,28.10
2006,07,23,14,37,28.10
2006,07,23,14,38,28.10
2006,07,23,14,39,28.10
2006,07,23,14,40,28.10
2006,07,23,14,41,28.20
2006,07,23,14,42,28.20
2006,07,23,14,43,28.20
2006,07,23,14,44,28.10
2006,07,23,14,45,28.20
2006,07,23,14,46,28.20
2006,07,23,14,47,28.20
2006,07,23,14,48,28.20
2006,07,23,14,49,28.30
2006,07,23,14,50,28.40
2006,07,23,14,51,28.60
2006,07,23,14,52,28.70
2006,07,23,14,53,28.80
2006,07,23,14,54,28.90
2006,07,23,14,55,29.00
2006,07,23,14,56,29.10
2006,07,23,14,57,29.20
2006,07,23,14,58,29.20
2006,07,23,14,59,29.10
2006,07,23,15,00,29.00
2006,07,23,15,01,28.90
2006,07,23,15,02,28.90
2006,07,23,15,03,28.90
2006,07,23,15,04,29.00
2006,07,23,15,05,29.10
2006,07,23,15,06,29.10
2006,07,23,15,07,29.20
2006,07,23,15,08,29.20
2006,07,23,15,09,29.30
2006,07,23,15,10,29.40
2006,07,23,15,11,29.50
2006,07,23,15,12,29.60
2006,07,23,15,13,29.70
2006,07,23,15,14,29.70
2006,07,23,15,15,29.70
2006,07,23,15,16,29.70
2006,07,23,15,17,29.70
2006,07,23,15,18,29.70
2006,07,23,15,19,29.60
2006,07,23,15,20,29.40
2006,07,23,15,21,29.40
2006,07,23,15,22,29.40
2006,07,23,15,23,29.40
2006,07,23,15,24,29.40
2006,07,23,15,25,29.40
2006,07,23,15,26,29.50
2006,07,23,15,27,29.50
2006,07,23,15,28,29.50
2006,07,23,15,29,29.60
2006,07,23,15,30,29.60
2006,07,23,15,31,29.60
2006,07,23,15,32,29.60
2006,07,23,15,33,29.60
2006,07,23,15,34,29.70
2006,07,23,15,35,29.70
2006,07,23,15,36,29.70
2006,07,23,15,37,29.60
2006,07,23,15,38,29.70
2006,07,23,15,39,29.80
2006,07,23,15,40,29.80
2006,07,23,15,41,29.80
2006,07,23,15,42,29.80
2006,07,23,15,43,29.70
2006,07,23,15,44,29.70
2006,07,23,15,45,29.70
2006,07,23,15,46,29.80
2006,07,23,15,47,29.80
2006,07,23,15,48,29.90
2006,07,23,15,49,29.90
2006,07,23,15,50,29.90
2006,07,23,15,51,29.90
2006,07,23,15,52,30.00
2006,07,23,15,53,30.10
2006,07,23,15,54,30.10
2006,07,23,15,55,30.10
2006,07,23,15,56,30.10
2006,07,23,15,57,30.00
2006,07,23,15,58,29.90
2006,07,23,15,59,29.90
2006,07,23,16,00,29.90
2006,07,23,16,01,30.00
2006,07,23,16,02,30.10
2006,07,23,16,03,30.20
2006,07,23,16,04,30.30
2006,07,23,16,05,30.30
2006,07,23,16,06,30.20
2006,07,23,16,07,30.10
2006,07,23,16,08,30.10
2006,07,23,16,09,30.10
2006,07,23,16,10,30.10
2006,07,23,16,11,30.20
2006,07,23,16,12,30.20
2006,07,23,16,13,30.20
2006,07,23,16,14,30.20
2006,07,23,16,15,30.20
2006,07,23,16,16,30.20
2006,07,23,16,17,30.20
2006,07,23,16,18,30.20
2006,07,23,16,19,30.20
2006,07,23,16,20,30.20
2006,07,23,16,21,30.10
2006,07,23,16,22,30.10
2006,07,23,16,23,30.10
2006,07,23,16,24,30.20
2006,07,23,16,25,30.30
2006,07,23,16,26,30.30
2006,07,23,16,27,30.30
2006,07,23,16,28,30.30
2006,07,23,16,29,30.30
2006,07,23,16,30,30.30
2006,07,23,16,31,30.40
2006,07,23,16,32,30.40
2006,07,23,16,33,30.30
2006,07,23,16,34,30.30
2006,07,23,16,35,30.30
2006,07,23,16,36,30.20
2006,07,23,16,37,30.20
2006,07,23,16,38,30.30
2006,07,23,16,39,30.40
2006,07,23,16,40,30.60
2006,07,23,16,41,30.70
2006,07,23,16,42,30.70
2006,07,23,16,43,30.60
2006,07,23,16,44,30.60
2006,07,23,16,45,30.60
2006,07,23,16,46,30.60
2006,07,23,16,47,30.40
2006,07,23,16,48,30.30
2006,07,23,16,49,30.30
2006,07,23,16,50,30.30
2006,07,23,16,51,30.30
2006,07,23,16,52,30.30
2006,07,23,16,53,30.20
2006,07,23,16,54,30.20
2006,07,23,16,55,30.30
2006,07,23,16,56,30.30
2006,07,23,16,57,30.30
2006,07,23,16,58,30.40
2006,07,23,16,59,30.50
2006,07,23,17,00,30.30
2006,07,23,17,01,30.20
2006,07,23,17,02,30.10
2006,07,23,17,03,30.10
2006,07,23,17,04,30.10
2006,07,23,17,05,30.10
2006,07,23,17,06,30.00
2006,07,23,17,07,29.90
2006,07,23,17,08,29.80
2006,07,23,17,09,29.70
2006,07,23,17,10,29.70
2006,07,23,17,11,29.70
2006,07,23,17,12,29.70
2006,07,23,17,13,29.70
2006,07,23,17,14,29.80
2006,07,23,17,15,29.90
2006,07,23,17,16,29.90
2006,07,23,17,17,29.80
2006,07,23,17,18,29.80
2006,07,23,17,19,29.80